Location: Adamstown South Public School
(32.9318°S, 151.7012°E)
Time: 20:36:48
(UTC+00:00)

Tsikada Rocket - Pass Details

Date: 07 June 2020
Orbit: 958 x 1009 km, 82.9° (Epoch: 05 July)

Event Time Altitude Azimuth Distance (km) Brightness Sun altitude
Rises 08:08:15 0° 184° (S) 3,746 6.9 -15.4°
Reaches altitude 10° 08:10:50 10° 181° (S) 2,784 6.2 -15.9°
Maximum altitude 08:17:13 72° 97° (E) 1,042 3.9 -17.2°
Drops below altitude 10° 08:23:25 10° 12° (NNE) 2,716 6.4 -18.4°
Sets 08:25:55 0° 10° (N) 3,649 7.1 -18.9°
